CZ-6A DEB

Satellite information

Favourite Embed

Satellite Type and Status

DEBRISIN ORBIT

Key statistics

Satellite CZ-6A DEB at a glance.

Uptime

907

Days in orbit

Revolutions

≈ 14.6

Per day

Orbit

SSO

Sun Synchronous Orbit

Inclination

98.6

Latest

Satellite identification and parameters

Extended collection of information and parameters for CZ-6A DEB.

Object identification

Identified? True

Debris? True

Object name: CZ-6A DEB

International designator: 2022-151ADB

Object number (NORAD): 56283

Object ID (CCSDS): 56283

Country: PEOPLES REPUBLIC OF CHINA (PRC)

Current information (Y/N): Y

RCS size: SMALL

Orbital parameters

Period: 98.558 minutes

Inclination: 98.5896 deg

SMA: 7067.886 km

Apoapsis: 744.041 km

Periapsis: 635.461 km

RAAN: 152.6649 deg

Eccentricy: 0.0076812

Argument of periapsis: 136.4302 deg

Mean anomaly: 224.2999 deg

Mean motion: 14.6106138 rev/day

Mean motion (dot): 0.00021196 rev/day2

B* drag term: 0.0041377 1/REarth

Two-line elements (TLE)

Creation date: May 6, 2025, 3:54 a.m.

Reference frame: TEME

Reference center: EARTH

Epoch: May 5, 2025, 8:32 p.m. UTC

TLE line 0: 0 CZ-6A DEB

TLE line 1: 1 56283U 22151ADB 25125.85589234 .00021196 00000-0 41377-2 0 9997

TLE line 2: 2 56283 98.5896 152.6649 0076812 136.4302 224.2999 14.61061380112277

Live tracking on map

Real-time ground track for satellite CZ-6A DEB.

In-orbit conjunctions

A list of the most updated potential collisions computed for object CZ-6A DEB.

Target Orbit TCA Probability of collision Miss distance Type
COSMOS 2251 DEB LEO 2024-11-15 00:31:13 0.001021256 265.0 (m) DEBRIS
ARIANE 1 DEB SSO 2024-11-12 01:14:35 0.0001528069 959.0 (m) DEBRIS
COSMOS 1331 LEO 2024-06-29 14:36:12 0.0003696046 314.0 (m) PAYLOAD

Associated space launch

Chinese satellite reported for atmospheric/ocean/environmental/spatial parameter research purposes, details TBD.

CZ-6A DEB was lifted into orbit during the mission ‘Long March 6A | Yunhai 3’, on board a Long March 6A space rocket.

The launch took place on Nov. 11, 2022, 10:52 p.m. from Launch Complex 9A.

For more information about the launch, click the button.

Launch to space Long March 6A | Yunhai 3
Long March 6A | Yunhai 3

Agency: N/A

Status: Launch Successful

Launch date: Nov. 11, 2022, 10:52 p.m. UTC

Rocket: Long March 6A

Launch pad: Launch Complex 9A

Location: Taiyuan Satellite Launch Center, People's Republic of China

...

Latest news about this satellite

There are no fresh news available about this satellite. Check back as we update our databases every day.


Newsletter sign-up

Weekly statistics, charts and insights to help you stay on top of the space industry.